Time,TemperatureF,DewpointF,PressureIn,WindDirection,WindDirectionDegrees,WindSpeedMPH,WindSpeedGustMPH,Humidity,HourlyPrecipIn,Conditions,Clouds,dailyrainin,SoftwareType,DateUTC
2014-12-27 00:01:00,48.8,22.0,30.21,NNE,18,1.0,4.0,35,0.00,,,0.00,weatherlink.com 1.10,2014-12-27 08:01:00,
2014-12-27 00:16:00,48.3,22.0,30.21,ENE,67,1.0,3.0,36,0.00,,,0.00,weatherlink.com 1.10,2014-12-27 08:16:00,
2014-12-27 00:31:00,47.2,22.0,30.21,NNE,12,2.0,4.0,37,0.00,,,0.00,weatherlink.com 1.10,2014-12-27 08:31:00,
2014-12-27 00:46:00,46.4,22.0,30.22,SE,143,3.0,4.0,39,0.00,,,0.00,weatherlink.com 1.10,2014-12-27 08:46:00,
2014-12-27 01:00:00,46.7,22.0,30.21,NE,39,3.0,5.0,38,0.00,,,0.00,weatherlink.com 1.10,2014-12-27 09:00:00,
2014-12-27 01:16:00,47.1,22.0,30.21,NE,46,1.0,4.0,38,0.00,,,0.00,weatherlink.com 1.10,2014-12-27 09:16:00,
2014-12-27 01:31:00,46.6,23.0,30.21,NE,46,1.0,3.0,39,0.00,,,0.00,weatherlink.com 1.10,2014-12-27 09:31:00,
2014-12-27 01:46:00,46.1,23.0,30.22,NE,46,0.0,2.0,41,0.00,,,0.00,weatherlink.com 1.10,2014-12-27 09:46:00,
2014-12-27 02:01:00,44.7,24.0,30.22,NE,46,3.0,3.0,45,0.00,,,0.00,weatherlink.com 1.10,2014-12-27 10:01:00,
2014-12-27 02:16:00,43.7,25.0,30.23,NE,43,2.0,3.0,48,0.00,,,0.00,weatherlink.com 1.10,2014-12-27 10:16:00,
2014-12-27 02:31:00,42.8,25.0,30.23,NE,43,1.0,2.0,50,0.00,,,0.00,weatherlink.com 1.10,2014-12-27 10:31:00,
2014-12-27 02:46:00,41.7,25.0,30.23,NE,43,2.0,2.0,51,0.00,,,0.00,weatherlink.com 1.10,2014-12-27 10:46:00,
2014-12-27 03:16:00,43.5,22.0,30.24,East,92,0.0,3.0,43,0.00,,,0.00,weatherlink.com 1.10,2014-12-27 11:16:00,
2014-12-27 03:31:00,44.1,24.0,30.24,NNE,17,2.0,2.0,45,0.00,,,0.00,weatherlink.com 1.10,2014-12-27 11:31:00,
2014-12-27 03:46:00,44.6,22.0,30.24,ENE,76,4.0,5.0,41,0.00,,,0.00,weatherlink.com 1.10,2014-12-27 11:46:00,
2014-12-27 04:01:00,47.0,21.0,30.24,East,82,4.0,7.0,36,0.00,,,0.00,weatherlink.com 1.10,2014-12-27 12:01:00,
2014-12-27 04:16:00,48.6,21.0,30.24,ENE,61,11.0,11.0,33,0.00,,,0.00,weatherlink.com 1.10,2014-12-27 12:16:00,
2014-12-27 04:31:00,49.0,20.0,30.24,NE,56,3.0,9.0,32,0.00,,,0.00,weatherlink.com 1.10,2014-12-27 12:31:00,
2014-12-27 04:46:00,49.2,20.0,30.25,NE,34,5.0,12.0,32,0.00,,,0.00,weatherlink.com 1.10,2014-12-27 12:46:00,
2014-12-27 05:16:00,50.3,18.0,30.25,NE,40,6.0,13.0,28,0.00,,,0.00,weatherlink.com 1.10,2014-12-27 13:16:00,
2014-12-27 05:32:00,50.9,18.0,30.25,ENE,73,10.0,17.0,27,0.00,,,0.00,weatherlink.com 1.10,2014-12-27 13:32:00,
2014-12-27 05:47:00,50.9,18.0,30.25,East,85,5.0,18.0,27,0.00,,,0.00,weatherlink.com 1.10,2014-12-27 13:47:00,
2014-12-27 06:02:00,50.8,18.0,30.25,ENE,64,5.0,14.0,27,0.00,,,0.00,weatherlink.com 1.10,2014-12-27 14:02:00,
2014-12-27 06:17:00,51.1,18.0,30.26,NNE,25,9.0,21.0,27,0.00,,,0.00,weatherlink.com 1.10,2014-12-27 14:17:00,
2014-12-27 06:32:00,51.1,18.0,30.26,East,84,11.0,20.0,27,0.00,,,0.00,weatherlink.com 1.10,2014-12-27 14:32:00,
2014-12-27 06:47:00,51.1,18.0,30.27,ESE,103,9.0,16.0,27,0.00,,,0.00,weatherlink.com 1.10,2014-12-27 14:47:00,
2014-12-27 07:02:00,50.8,18.0,30.27,ENE,57,11.0,21.0,27,0.00,,,0.00,weatherlink.com 1.10,2014-12-27 15:02:00,
2014-12-27 07:17:00,50.5,17.0,30.27,NE,34,12.0,17.0,27,0.00,,,0.00,weatherlink.com 1.10,2014-12-27 15:17:00,
2014-12-27 07:32:00,51.1,18.0,30.28,NE,55,12.0,21.0,27,0.00,,,0.00,weatherlink.com 1.10,2014-12-27 15:32:00,
2014-12-27 07:47:00,51.6,18.0,30.28,NE,43,6.0,20.0,26,0.00,,,0.00,weatherlink.com 1.10,2014-12-27 15:47:00,
2014-12-27 08:02:00,52.3,18.0,30.29,ESE,103,11.0,19.0,26,0.00,,,0.00,weatherlink.com 1.10,2014-12-27 16:02:00,
2014-12-27 08:17:00,52.8,18.0,30.29,NNE,24,8.0,19.0,25,0.00,,,0.00,weatherlink.com 1.10,2014-12-27 16:17:00,
2014-12-27 08:32:00,53.3,18.0,30.30,ENE,63,9.0,21.0,25,0.00,,,0.00,weatherlink.com 1.10,2014-12-27 16:32:00,
2014-12-27 08:47:00,54.2,18.0,30.30,East,86,8.0,19.0,24,0.00,,,0.00,weatherlink.com 1.10,2014-12-27 16:47:00,
2014-12-27 09:02:00,54.7,18.0,30.31,NNE,32,5.0,15.0,24,0.00,,,0.00,weatherlink.com 1.10,2014-12-27 17:02:00,
2014-12-27 09:17:00,55.1,19.0,30.32,NE,43,6.0,17.0,24,0.00,,,0.00,weatherlink.com 1.10,2014-12-27 17:17:00,
2014-12-27 09:32:00,55.6,19.0,30.32,NE,45,11.0,18.0,24,0.00,,,0.00,weatherlink.com 1.10,2014-12-27 17:32:00,
2014-12-27 09:47:00,56.3,19.0,30.33,ENE,60,6.0,18.0,23,0.00,,,0.00,weatherlink.com 1.10,2014-12-27 17:47:00,
2014-12-27 10:02:00,56.9,19.0,30.33,NE,42,3.0,16.0,23,0.00,,,0.00,weatherlink.com 1.10,2014-12-27 18:02:00,
2014-12-27 10:17:00,57.5,19.0,30.33,NE,51,9.0,16.0,22,0.00,,,0.00,weatherlink.com 1.10,2014-12-27 18:17:00,
2014-12-27 10:32:00,58.1,19.0,30.34,East,79,9.0,16.0,22,0.00,,,0.00,weatherlink.com 1.10,2014-12-27 18:32:00,
2014-12-27 10:47:00,58.4,19.0,30.33,ENE,67,6.0,16.0,22,0.00,,,0.00,weatherlink.com 1.10,2014-12-27 18:47:00,
2014-12-27 11:02:00,58.8,20.0,30.32,East,86,5.0,16.0,22,0.00,,,0.00,weatherlink.com 1.10,2014-12-27 19:02:00,
2014-12-27 11:17:00,59.1,20.0,30.32,ENE,57,9.0,15.0,22,0.00,,,0.00,weatherlink.com 1.10,2014-12-27 19:17:00,
2014-12-27 11:32:00,59.9,21.0,30.31,ENE,59,7.0,13.0,22,0.00,,,0.00,weatherlink.com 1.10,2014-12-27 19:32:00,
2014-12-27 11:47:00,60.6,20.0,30.31,East,98,6.0,10.0,21,0.00,,,0.00,weatherlink.com 1.10,2014-12-27 19:47:00,
2014-12-27 12:02:00,60.7,20.0,30.30,ENE,61,9.0,12.0,21,0.00,,,0.00,weatherlink.com 1.10,2014-12-27 20:02:00,
2014-12-27 12:17:00,60.9,21.0,30.29,East,88,5.0,12.0,21,0.00,,,0.00,weatherlink.com 1.10,2014-12-27 20:17:00,
2014-12-27 12:33:00,60.7,20.0,30.28,East,88,8.0,13.0,21,0.00,,,0.00,weatherlink.com 1.10,2014-12-27 20:33:00,
2014-12-27 12:48:00,61.3,20.0,30.28,ENE,69,2.0,11.0,20,0.00,,,0.00,weatherlink.com 1.10,2014-12-27 20:48:00,
2014-12-27 13:03:00,62.3,19.0,30.27,ENE,76,5.0,12.0,19,0.00,,,0.00,weatherlink.com 1.10,2014-12-27 21:03:00,
2014-12-27 13:18:00,63.1,21.0,30.27,ENE,61,3.0,9.0,20,0.00,,,0.00,weatherlink.com 1.10,2014-12-27 21:18:00,
2014-12-27 13:33:00,62.8,21.0,30.27,ENE,63,3.0,8.0,20,0.00,,,0.00,weatherlink.com 1.10,2014-12-27 21:33:00,
2014-12-27 13:48:00,64.1,23.0,30.27,NNW,327,1.0,5.0,21,0.00,,,0.00,weatherlink.com 1.10,2014-12-27 21:48:00,
2014-12-27 14:03:00,64.9,31.0,30.27,SSW,213,4.0,8.0,28,0.00,,,0.00,weatherlink.com 1.10,2014-12-27 22:03:00,
2014-12-27 14:18:00,64.3,33.0,30.27,SSW,205,4.0,8.0,31,0.00,,,0.00,weatherlink.com 1.10,2014-12-27 22:18:00,
2014-12-27 14:33:00,63.9,31.0,30.27,West,263,2.0,8.0,29,0.00,,,0.00,weatherlink.com 1.10,2014-12-27 22:33:00,
2014-12-27 14:48:00,63.9,31.0,30.27,West,269,7.0,7.0,29,0.00,,,0.00,weatherlink.com 1.10,2014-12-27 22:48:00,
2014-12-27 15:03:00,63.9,32.0,30.27,SSW,212,2.0,9.0,30,0.00,,,0.00,weatherlink.com 1.10,2014-12-27 23:03:00,
2014-12-27 15:18:00,63.2,31.0,30.28,WSW,242,1.0,8.0,30,0.00,,,0.00,weatherlink.com 1.10,2014-12-27 23:18:00,
2014-12-27 15:33:00,62.6,32.0,30.28,SW,231,5.0,9.0,32,0.00,,,0.00,weatherlink.com 1.10,2014-12-27 23:33:00,
2014-12-27 15:48:00,62.3,33.0,30.28,SW,223,3.0,7.0,33,0.00,,,0.00,weatherlink.com 1.10,2014-12-27 23:48:00,
2014-12-27 16:03:00,61.8,34.0,30.28,SW,216,3.0,7.0,36,0.00,,,0.00,weatherlink.com 1.10,2014-12-28 00:03:00,
2014-12-27 16:18:00,61.1,35.0,30.28,West,281,3.0,6.0,38,0.00,,,0.00,weatherlink.com 1.10,2014-12-28 00:18:00,
2014-12-27 16:33:00,59.8,36.0,30.29,WSW,252,1.0,7.0,42,0.00,,,0.00,weatherlink.com 1.10,2014-12-28 00:33:00,
2014-12-27 16:49:00,58.8,36.0,30.29,WSW,244,1.0,5.0,43,0.00,,,0.00,weatherlink.com 1.10,2014-12-28 00:49:00,
2014-12-27 17:03:00,58.0,36.0,30.29,West,281,0.0,3.0,44,0.00,,,0.00,weatherlink.com 1.10,2014-12-28 01:03:00,
2014-12-27 17:18:00,57.3,35.0,30.30,West,281,0.0,2.0,44,0.00,,,0.00,weatherlink.com 1.10,2014-12-28 01:18:00,
2014-12-27 17:33:00,56.4,36.0,30.30,West,281,1.0,1.0,46,0.00,,,0.00,weatherlink.com 1.10,2014-12-28 01:33:00,
2014-12-27 17:48:00,55.3,36.0,30.30,WNW,282,0.0,2.0,48,0.00,,,0.00,weatherlink.com 1.10,2014-12-28 01:48:00,